Regional Weather Roundup
Issued by NWS Portland, ME

Home | Current Version | Previous Version | Text Only | Print | Product List | Glossary On
Versions: 1 2 3 4 5 6 7 8 9 10 11 12 13 14 15 16 17 18 19 20 21 22 23 24 25 26 27 28 29 30 31 32 33 34 35 36 37 38 39 40 41 42 43 44 45 46 47 48 49 50
000
ASUS41 KGYX 241210
RWRGYX
WEATHER ROUNDUP FOR MAINE AND NEW HAMPSHIRE
NATIONAL WEATHER SERVICE GRAY ME
800 AM EDT WED MAY 24 2017

MEZ002-005-006-010-012-015-018-020-021-024-026-027-029-241300-
MAINE

CITY           SKY/WX    TMP DP  RH WIND       PRES   REMARKS
PORTLAND       CLOUDY    54  51  90 N3        29.81S
6HR MIN TEMP:  49; 6HR MAX TEMP:  54;

SANFORD        CLOUDY    55  52  89 N5        29.81S
BAR HARBOR     CLOUDY    51  49  92 N3        29.83R
WISCASSET      CLOUDY    53  50  89 CALM      29.83S
6HR MIN TEMP:  47; 6HR MAX TEMP:  54;

ROCKLAND       CLOUDY    53  51  93 CALM      29.82R
FRYEBURG       CLOUDY    52  52 100 CALM      29.83S
6HR MIN TEMP:  45; 6HR MAX TEMP:  53;

LEWISTONAUBURN CLOUDY    53  50  89 N3        29.83S
AUGUSTA        CLOUDY    54  49  83 N3        29.82S
6HR MIN TEMP:  50; 6HR MAX TEMP:  54;

WATERVILLE     CLOUDY    54  50  86 CALM      29.80S
BANGOR         CLOUDY    53  51  93 N3        29.83R
6HR MIN TEMP:  44; 6HR MAX TEMP:  53;

GREENVILLE       N/A     59  47  64 CALM      29.81R
6HR MIN TEMP:  45; 6HR MAX TEMP:  59;

MILLINOCKET    CLOUDY    56  49  77 CALM      29.83R
6HR MIN TEMP:  43; 6HR MAX TEMP:  56;

HOULTON        MOSUNNY   57  49  74 CALM      29.81R
6HR MIN TEMP:  38; 6HR MAX TEMP:  57;

PRESQUE ISLE   SUNNY     55  47  74 CALM      29.82R
6HR MIN TEMP:  38; 6HR MAX TEMP:  55;

FRENCHVILLE    SUNNY     54  44  69 W3        29.80R
6HR MIN TEMP:  45; 6HR MAX TEMP:  54;

CARIBOU        SUNNY     59  48  67 N5        29.80R
6HR MIN TEMP:  43; 6HR MAX TEMP:  59;

$$

NHZ002-005-008-009-011-012-014-241300-
NEW HAMPSHIRE

CITY           SKY/WX    TMP DP  RH WIND       PRES   REMARKS
PORTSMOUTH     CLOUDY    55  52  90 CALM      29.78S
ROCHESTER      CLOUDY    55  49  80 NW5       29.79S
6HR MIN TEMP:  50; 6HR MAX TEMP:  55;

NASHUA         CLOUDY    55  53  93 NW5       29.79S
MANCHESTER     CLOUDY    56  50  80 N7        29.77F
6HR MIN TEMP:  54; 6HR MAX TEMP:  56;

CONCORD        CLOUDY    53  51  93 NW5       29.80S
6HR MIN TEMP:  50; 6HR MAX TEMP:  53;

LACONIA        CLOUDY    54  52  93 NE3       29.82S
PLYMOUTH       PTSUNNY   49  48  97 CALM      29.82S
BERLIN         PTSUNNY   54  46  74 CALM      29.82F
6HR MIN TEMP:  47; 6HR MAX TEMP:  54;

WHITEFIELD     MOSUNNY   53  48  83 CALM      29.81F
6HR MIN TEMP:  43; 6HR MAX TEMP:  53;

JAFFREY        CLOUDY    53  52  96 VRB3      29.80R
6HR MIN TEMP:  49; 6HR MAX TEMP:  53;

KEENE          CLOUDY    53  51  93 CALM      29.79S
LEBANON        MOSUNNY   55  51  86 CALM      29.80S
6HR MIN TEMP:  49; 6HR MAX TEMP:  53;

MT WASHINGTON  NOT AVBL
$$

VTZ005-007-008-241300-
VERMONT

CITY           SKY/WX    TMP DP  RH WIND       PRES   REMARKS
ST JOHNSBURY     N/A     50  49  96 MISG      29.80F
MONTPELIER     MOSUNNY   50  50 100 CALM      29.84S
BURLINGTON     PTSUNNY   62  53  72 CALM      29.78S
$$

MAZ007-012-024-CTZ003-RIZ002-NYZ038-NYZ072-241300-
SOUTHERN NEW ENGLAND AND NY

CITY           SKY/WX    TMP DP  RH WIND       PRES   REMARKS
BOSTON         CLOUDY    56  54  93 E5        29.78S
WORCESTER      CLOUDY    56  48  74 NE3       29.78R
NANTUCKET      CLOUDY    54  50  86 E8        29.76S
PROVIDENCE     CLOUDY    57  56  96 N3        29.78R
HARTFORD       CLOUDY    59  54  83 NE5       29.77R
ALBANY         CLOUDY    56  51  84 N6        29.76F
NEW YORK CITY  CLOUDY    59  53  80 NE8       29.73F
$$

ANZ081-ANZ082-ANZ150-NHZ014-MEZ023>029-241300-
COASTAL MARINE OBSERVATIONS

STATION/POSITION TIME  TEMP    WIND        PRES    WAVE
                       AIR SEA DIR/SP/G            HT/PER
                 (UTC) (F)     (DEG/KT/KT) (MB)    (FT/S)
MOUNT DESERT ROC 1200   48                 1009.9R
ISLE OF SHOALS   1100   53      60/  5/  5 1008.5R
JEFFREYS LEDGE   1136      50                N/A     2/ 5
CASHES LEDGE BUO 1050   50 49              1009.1    2/ 7
GEORGES BANK BUO 1050   47 45              1008.9    5/ 7
$$

.............KEY..............
   WCI - WIND CHILL
   TC  - TEMPERATURE IN CELSIUS
   VSB - VISIBILITY IN MILES
   HX  - HEAT INDEX
   FAIR- INDICATES FEW OR NO CLOUDS BELOW 12,000 FT, WITH NO
         SIGNIFICANT WEATHER AND/OR OBSTRUCTIONS TO VISIBILITY.






USA.gov is the U.S. government's official web portal to all federal, state and local government web resources and services.